Погода Нижний Новгород

Погода Нижний Новгород : погода сейчас, прогноз погоды и архив. Всё, что Вы хотите узнать о погоде Нижний Новгород!

Хотите узнать прогноз погоды в Нижнем Новгороде? Тогда Вам сюда: Погода в Нижнем Новгороде

Поиск расширенной информации на нашем сайте:

Полезная информация:

Другие новости

Новости СМИ2

Главная страница сайта

Новости сайта

03.07.2017

Напоминаем, что на нашем специализированном сайте Метеоцентр.Азия вы можете получить высокодетализированные автоматические прогнозы погоды по пунктам России, СНГ и мира в авиационном формате (включающие направление и скорость ветра, видимость, явления погоды, количество и форму облачности, нижнюю и верхнюю границу облачности).

Рекомендуем:

Погода Нижний Новгород - сегодня

Время (UTC), дата Ветер
(°,м/с) 
Видим.   Явления Облачность Т
(°С)
Тd
(°С)
f(%) Тe
(°С)
Pmin
(гПа)
dP
(гПа)
Po
(мм)
O2
(г/м3)
Тmin Tmax R s Состояние
почвы
15 19.07.19 220 (ЮЗ) 2-4{06}  10 км    6/3 600 м кучево-дожд., средняя 
[Cb cap|Ac trans]
+22.7 +10.7 47 +25  1007.6  0.3  742  274    +25       
18 19.07.19 тихо () -0{05}  10 км    6/3 600 м средняя 
[Sc diur, vesp|Ac lent]
+19 +12.4 66 +24  1008.1  0.3  742  277           
21 19.07.19 140 (ЮВ) 1-2{04}  10 км    8/0 средняя, верхняя 
[Ac trans|Ci]
+16.8 +12.3 75 +23  1008.5  0.3  743  279           
00 20.07.19 тихо () -0{04}  10 км    3/0 верхняя 
[Ci fib]
+16.1 +12.3 78 +21  1008.5  743  280           
03 20.07.19 140 (ЮВ) 1-2{04}  10 км    8/4 600 м кучево-дожд., средняя 
[Cb cap|Ac cast]
+16.3 +12.5 78 +23  1008.4  -0.1  743  280  +15        сухая 
06 20.07.19 220 (ЮЗ) 2-7{07}  10 км    9/9 600 м кучево-дожд. 
[Cb cap]
+17.3 +13.4 78 +24  1008.9  0.5  743  279           
09 20.07.19 240 (ЮЗ) 1-4{07}  10 км  в посл. час ливневой дождь  8/6 300 м кучево-дожд., средняя 
[Cb cap|Ac trans]
+16.5 +15.3 93 +27  1009.7  0.8  743  279           
12 20.07.19 250 (З) 2-7{07}  10 км  {ливн. осадки}  8/5 600 м средняя 
[Sc|Ac trans]
+20.5 +13.7 65 +27  1009.9  0.4  744  276           
15 20.07.19 240 (ЮЗ) 2-4{07}  10 км    8/5 600 м кучево-дожд., средняя, верхняя 
[Cb cap|Ac trans|Ci fib]
+20 +14.5 71 +28  1010.3  0.4  744  276    +21     
18 20.07.19 220 (ЮЗ) 1-3{06}  10 км    3/0 средняя 
[Ac trans]
+17.6 +13.3 76 +25  1011.4  0.9  745  279           
21 20.07.19 260 (З) 1-2{03}  10 км    3/0 средняя 
[Ac trans]
+15.4 +14.7 96 +25  1011.8  0.2  745  281           
00 21.07.19 тихо () -0{03}  10 км    4/0 средняя 
[Ac trans]
+14.7 +14 96 +22  1011.9  745  282           
03 21.07.19 270 (З) 1-4{04}  10 км    10/5 600 м средняя 
[Sc|Ac As]
+15.5 +14.3 93 +25  1011.9  0.1  745  281  +14.2        влажная 
06 21.07.19 260 (З) 2-4{05}  10 км    9/8 600 м средняя 
[Sc|Ac trans]
+17.5 +14.8 84 +26  1012  0.3  745  279           
09 21.07.19 270 (З) 2-6{09}  10 км  слаб. дождь  10/6 300 м кучево-дожд., средняя 
[Cb cap|Ac trans]
+17.9 +14.2 79 +26  1012.3  0.3  745  279           
12 21.07.19 300 (СЗ) 1-4{07}  10 км  {дождь}  9/6 300 м кучево-дожд., средняя 
[Cb cap|Ac trans]
+20.2 +14.6 70 +28  1012.1  -0.1  745  277           
15 21.07.19 300 (СЗ) 2-7{08}  10 км    8/5 300 м кучево-дожд., средняя 
[Cb cap|Ac trans]
+21.4 +13.4 60 +28  1012.2  0.2  746  276    +22  0.3     
18 21.07.19 280 (З) 1-2{11}  10 км  в посл. час ливневой дождь  6/3 300 м кучево-дожд., средняя 
[Cb cap|Ac trans]
+14.9 +14 94 +23  1013.4  0.7  746  282           
21 21.07.19 300 (СЗ) 1-3{05}  10 км    6/4 600 м средняя 
[Sc|Ac trans]
+14.4 +13.7 96 +23  1013.6  0.2  746  283           
00 22.07.19 310 (СЗ) 1-3{05}  10 км  {дождь}  10/8 300 м средняя 
[Sc|Ac trans]
+14.1 +13.9 99 +22  1014.1  0.5  747  283           
03 22.07.19 290 (З) 2-4{05}  10 км    10/10 300 м 
[Frnb]
+13.2 +12.5 96 +19  1014.4  0.2  747  285  +13      влажная 
06 22.07.19 310 (СЗ) 2-4{05}  10 км    10/6 300 м кучево-дожд., средняя 
[Cb cap|Ac trans]
+15.2 +12.1 82 +20  1014  -0.3  746  283           
09 22.07.19 310 (СЗ) 1-6{06}  10 км    9/9 600 м кучево-дожд. 
[Cb cap]
+16.7 +12 74 +22  1013.8  746  281           
12 22.07.19 320 (СЗ) 2-6{07}  10 км    8/8 600 м кучево-дожд. 
[Cb cap]
+18.2 +10.9 62 +21  1013.9  0.2  747  280           
15 22.07.19 320 (СЗ) 1-5{07}  10 км    4/4 1000 м 
[Cu hum]
+19.6 +13.1 66 +27  1013.3  -0.6  746  278    +20.2       
Время (UTC), дата Ветер
(°,м/с) 
Видим.   Явления Облачность Т
(°С)
Тd
(°С)
f(%) Тe
(°С)
Pmin
(гПа)
dP
(гПа)
Po
(мм)
O2
(г/м3)
Тmin Tmax R s Состояние
почвы

Для получения пояснительной информации подведите курсор к названию столбца.

ПОГОДА Нижний Новгород - архив

Всё, что Вы хотите узнать о погоде Нижний Новгород - удобно и подробно!

Выберите нужную дату (начиная с 1 января 2018* года) и нажмите кнопку "Найти".
Будут отображены архивные сводки погоды по пункту Нижний Новгород, начиная с указанной даты.


Отображать данные в формате CSV (для использования в таблицах Excel)


Внимание! Наш архив погоды предназначен исключительно для личного некоммерческого использования в познавательных целях. Если Вам необходимы официальные справки о состоянии погоды (для производственных, юридических, коммерческих и т.п. целей), обращайтесь в органы Росгидромета.

*Примечание: данная дата относится к архиву по метеостанциям СССР (Россия, СНГ, Балтия).
Архив по метеостанциям Зарубежной Европы и Азии (кроме Китая) хранится 10 дней, по другим регионам земного шара (Китай, Африка, Америка, Австралия, Океания) - 1 день.

Нижний Новгород - район местоположения метеостанции


Название, широта, долгота, высота метеостанции:
Нижний Новгород (Мыза) 56.3°ш. 44°д. 157 м над ур. моря [Российская Федерация]

Дополнительная информация

В oтличие oт бoльшинства пoгoдных сайтoв мы публикуем пoдрoбную метеoинфoрмацию в детальнoм прoфессиoнальнoм фoрмате.

Характеристики температуры и влажнoсти вoздуха измеряются на высoте 2 м в тени вдали oт зданий и деревьев.
Скoрoсть ветра измеряется на высoте 10 м (на урoвне рoста челoвека скoрoсть ветра ниже в 1.5-2 раза). Если метеoстанция нахoдится в гoрoде или в лесу, тo скoрoсть ветра занижена на 2-4 м/с пo сравнению с oткрытым местoм. Скoрoсть ветра над акватoриями крупных рек и oзёр, а также на вершинах хoлмoв на 2-5 м/с выше, чем в oбычных услoвиях.
Атмoсфернoе давление в разных тoчках местнoсти мoжет значительнo oтличаться oт давления на метеoстанции, в зависимoсти oт услoвий рельефа (при пoдъёме на 10 м давление пoнижается примернo на 1 мм рт.ст.).